AFL2112 ULLI-ULAA

Flight info

Callsign AFL2112
Flight time 1h 15m
Altitude 35000
Route RELNI1B RELNI T693 DISUP DCT MAKOG MAKOG2L
Aircraft A321/M-SDE3FGHIRWY/LB1

Departure

Time 2026-04-26 07:53
Airport Pulkovo Airport (ULLI)

Arrival

Time 2026-04-26 09:08
Airport Talagi Airport (ULAA)
Time Latitude Longitude Altitude Speed Heading
2026-04-26 07:53 59.89073 30.32800 14606 ft 325 kts 101°
2026-04-26 07:53 59.88668 30.37275 14894 ft 335 kts 90°
2026-04-26 07:53 59.88534 30.41984 15054 ft 351 kts 90°
2026-04-26 07:53 59.88396 30.46942 15407 ft 360 kts 91°
2026-04-26 07:54 59.88251 30.51931 16039 ft 361 kts 91°
2026-04-26 07:54 59.88343 30.56917 16646 ft 360 kts 77°
2026-04-26 07:54 59.89183 30.61572 17236 ft 359 kts 59°
2026-04-26 07:54 59.90722 30.65457 17780 ft 360 kts 42°
2026-04-26 07:55 59.92628 30.68615 18278 ft 362 kts 39°
2026-04-26 07:55 59.94601 30.71816 18785 ft 364 kts 39°
2026-04-26 07:55 59.96551 30.74975 19275 ft 366 kts 39°
2026-04-26 07:55 59.98540 30.78207 19777 ft 368 kts 40°
2026-04-26 07:56 60.00521 30.81436 20262 ft 370 kts 40°
2026-04-26 07:56 60.02525 30.84714 20744 ft 372 kts 40°
2026-04-26 07:56 60.04531 30.88000 21231 ft 374 kts 40°
2026-04-26 07:56 60.06553 30.91315 21707 ft 376 kts 40°
2026-04-26 07:57 60.08580 30.94641 22178 ft 379 kts 40°
2026-04-26 07:57 60.10622 30.97997 22579 ft 382 kts 41°
2026-04-26 07:57 60.12689 31.01402 22952 ft 385 kts 41°
2026-04-26 07:57 60.14768 31.04833 23275 ft 389 kts 41°
2026-04-26 07:58 60.16868 31.08300 23587 ft 392 kts 41°
2026-04-26 07:58 60.18985 31.11802 23899 ft 396 kts 41°
2026-04-26 07:58 60.21088 31.15289 24190 ft 399 kts 41°
2026-04-26 07:58 60.23271 31.18920 24489 ft 403 kts 41°
2026-04-26 07:59 60.25402 31.22476 24775 ft 406 kts 41°
2026-04-26 07:59 60.27587 31.26124 25062 ft 410 kts 40°
2026-04-26 07:59 60.29791 31.29807 25340 ft 413 kts 40°
2026-04-26 07:59 60.32011 31.33526 25620 ft 416 kts 40°
2026-04-26 08:00 60.34247 31.37278 25876 ft 420 kts 41°
2026-04-26 08:00 60.36509 31.41076 26145 ft 423 kts 41°
2026-04-26 08:00 60.38778 31.44883 26412 ft 426 kts 41°
2026-04-26 08:00 60.41070 31.48736 26690 ft 429 kts 41°
2026-04-26 08:01 60.43366 31.52613 26940 ft 432 kts 41°
2026-04-26 08:01 60.45681 31.56534 27200 ft 435 kts 41°
2026-04-26 08:01 60.48005 31.60476 27447 ft 438 kts 40°
2026-04-26 08:01 60.49555 31.63109 27594 ft 440 kts 41°
2026-04-26 08:02 60.51902 31.67103 27835 ft 442 kts 40°
2026-04-26 08:02 60.54274 31.71137 28050 ft 445 kts 41°
2026-04-26 08:02 60.56646 31.75186 28247 ft 448 kts 42°
2026-04-26 08:02 60.59825 31.80638 28504 ft 452 kts 41°
2026-04-26 08:03 60.61452 31.83434 28654 ft 454 kts 41°
2026-04-26 08:03 60.64656 31.88954 28939 ft 457 kts 41°
2026-04-26 08:03 60.66312 31.91760 29091 ft 459 kts 38°
2026-04-26 08:03 60.68966 31.95292 29279 ft 464 kts 29°
2026-04-26 08:04 60.71922 31.97916 29506 ft 466 kts 19°
2026-04-26 08:04 60.75072 31.99541 29760 ft 467 kts 10°
2026-04-26 08:04 60.78311 32.00136 29946 ft 469 kts
2026-04-26 08:04 60.81575 32.00389 30182 ft 470 kts
2026-04-26 08:05 60.84843 32.00634 30445 ft 470 kts
2026-04-26 08:05 60.88111 32.00874 30703 ft 470 kts
2026-04-26 08:05 60.91365 32.01270 30912 ft 471 kts
2026-04-26 08:05 60.94568 32.02665 31158 ft 470 kts 18°
2026-04-26 08:06 60.97612 32.05102 31434 ft 469 kts 27°
2026-04-26 08:06 61.00417 32.08531 31619 ft 470 kts 37°
2026-04-26 08:06 61.02909 32.12874 31861 ft 469 kts 44°
2026-04-26 08:06 61.05233 32.17447 32074 ft 470 kts 44°
2026-04-26 08:07 61.07609 32.22120 32282 ft 471 kts 44°
2026-04-26 08:07 61.09975 32.26765 32528 ft 471 kts 44°
2026-04-26 08:07 61.12358 32.31447 32737 ft 472 kts 44°
2026-04-26 08:07 61.14728 32.36115 32980 ft 472 kts 44°
2026-04-26 08:08 61.17108 32.40823 33179 ft 473 kts 44°
2026-04-26 08:08 61.19481 32.45542 33399 ft 472 kts 44°
2026-04-26 08:08 61.21852 32.50270 33574 ft 473 kts 44°
2026-04-26 08:08 61.24221 32.54996 33757 ft 473 kts 44°
2026-04-26 08:09 61.26590 32.59723 33958 ft 473 kts 44°
2026-04-26 08:09 61.28937 32.64406 34115 ft 473 kts 44°
2026-04-26 08:09 61.31311 32.69152 34249 ft 473 kts 44°
2026-04-26 08:09 61.33672 32.73887 34280 ft 471 kts 44°
2026-04-26 08:10 61.38376 32.83373 34290 ft 470 kts 44°
2026-04-26 08:10 61.43063 32.92877 34286 ft 470 kts 44°
2026-04-26 08:11 61.47750 33.02427 34292 ft 469 kts 44°
2026-04-26 08:11 61.52427 33.11977 34296 ft 470 kts 44°
2026-04-26 08:12 61.57068 33.21504 34307 ft 470 kts 44°
2026-04-26 08:12 61.61742 33.31140 34302 ft 471 kts 44°
2026-04-26 08:13 61.66417 33.40821 34318 ft 472 kts 45°
2026-04-26 08:13 61.71087 33.50544 34321 ft 472 kts 45°
2026-04-26 08:14 61.75747 33.60287 34339 ft 472 kts 45°
2026-04-26 08:14 61.80415 33.70077 34337 ft 472 kts 45°
2026-04-26 08:15 61.85073 33.79891 34352 ft 472 kts 45°
2026-04-26 08:15 61.89690 33.89659 34371 ft 472 kts 45°
2026-04-26 08:16 61.94323 33.99506 34368 ft 472 kts 45°
2026-04-26 08:16 61.98946 34.09393 34366 ft 472 kts 45°
2026-04-26 08:17 62.03580 34.19360 34378 ft 472 kts 45°
2026-04-26 08:17 62.08190 34.29316 34381 ft 472 kts 45°
2026-04-26 08:18 62.12767 34.39228 34384 ft 471 kts 45°
2026-04-26 08:18 62.17394 34.49291 34386 ft 471 kts 46°
2026-04-26 08:19 62.21950 34.59257 34393 ft 471 kts 46°
2026-04-26 08:19 62.26524 34.69307 34387 ft 471 kts 46°
2026-04-26 08:20 62.31089 34.79398 34393 ft 471 kts 46°
2026-04-26 08:20 62.35649 34.89515 34394 ft 471 kts 46°
2026-04-26 08:21 62.40210 34.99669 34408 ft 472 kts 46°
2026-04-26 08:21 62.44739 35.09777 34408 ft 471 kts 46°
2026-04-26 08:22 62.49279 35.19987 34412 ft 471 kts 46°
2026-04-26 08:22 62.53811 35.30248 34417 ft 472 kts 46°
2026-04-26 08:23 62.58346 35.40541 34456 ft 471 kts 46°
2026-04-26 08:23 62.62911 35.50795 34417 ft 470 kts 46°
2026-04-26 08:24 62.67379 35.61092 34421 ft 468 kts 47°
2026-04-26 08:24 62.71811 35.71397 34415 ft 469 kts 47°
2026-04-26 08:25 62.76285 35.81776 34428 ft 470 kts 47°
2026-04-26 08:25 62.80774 35.92176 34431 ft 471 kts 47°
2026-04-26 08:26 62.85261 36.02645 34447 ft 472 kts 47°
2026-04-26 08:26 62.89739 36.13150 34452 ft 472 kts 47°
2026-04-26 08:27 62.94188 36.23645 34471 ft 472 kts 47°
2026-04-26 08:27 62.98642 36.34212 34485 ft 472 kts 47°
2026-04-26 08:28 63.03100 36.44822 34487 ft 472 kts 47°
2026-04-26 08:28 63.07549 36.55473 34496 ft 471 kts 47°
2026-04-26 08:29 63.11990 36.66120 34496 ft 471 kts 47°
2026-04-26 08:29 63.16391 36.76732 34512 ft 471 kts 47°
2026-04-26 08:30 63.20808 36.87477 34508 ft 471 kts 47°
2026-04-26 08:30 63.25212 36.98232 34508 ft 471 kts 47°
2026-04-26 08:31 63.29615 37.09012 34506 ft 471 kts 48°
2026-04-26 08:31 63.34008 37.19840 34518 ft 471 kts 48°
2026-04-26 08:32 63.38393 37.30688 34520 ft 471 kts 48°
2026-04-26 08:32 63.42779 37.41579 34526 ft 472 kts 48°
2026-04-26 08:33 63.47127 37.52455 34513 ft 473 kts 48°
2026-04-26 08:33 63.49319 37.57961 33988 ft 476 kts 48°
2026-04-26 08:33 63.51552 37.63580 32861 ft 488 kts 49°
2026-04-26 08:34 63.53803 37.69258 32102 ft 487 kts 49°
2026-04-26 08:34 63.56047 37.74930 31495 ft 484 kts 49°
2026-04-26 08:34 63.58270 37.80555 30949 ft 480 kts 49°
2026-04-26 08:34 63.60473 37.86156 30457 ft 475 kts 49°
2026-04-26 08:35 63.62654 37.91717 29984 ft 471 kts 50°
2026-04-26 08:35 63.64805 37.97213 29492 ft 466 kts 50°
2026-04-26 08:35 63.66904 38.02590 28898 ft 461 kts 50°
2026-04-26 08:35 63.69012 38.08006 28302 ft 457 kts 50°
2026-04-26 08:36 63.71092 38.13362 27727 ft 453 kts 50°
2026-04-26 08:36 63.73160 38.18696 27169 ft 449 kts 50°
2026-04-26 08:36 63.75204 38.23984 26638 ft 445 kts 50°
2026-04-26 08:36 63.77239 38.29255 26089 ft 442 kts 49°
2026-04-26 08:37 63.79251 38.34477 25517 ft 439 kts 49°
2026-04-26 08:37 63.81251 38.39683 24962 ft 436 kts 49°
2026-04-26 08:37 63.83227 38.44846 24440 ft 433 kts 49°
2026-04-26 08:37 63.85189 38.49981 23918 ft 430 kts 49°
2026-04-26 08:38 63.87137 38.55094 23423 ft 426 kts 50°
2026-04-26 08:38 63.88693 38.60666 23245 ft 410 kts 71°
2026-04-26 08:38 63.89238 38.66827 23118 ft 391 kts 91°
2026-04-26 08:38 63.89027 38.72732 22980 ft 373 kts 105°
2026-04-26 08:39 63.88292 38.78233 22800 ft 356 kts 117°
2026-04-26 08:39 63.87135 38.83028 22652 ft 339 kts 130°
2026-04-26 08:39 63.85617 38.86920 22505 ft 321 kts 144°
2026-04-26 08:39 63.83844 38.89806 22241 ft 309 kts 156°
2026-04-26 08:40 63.81901 38.91707 21953 ft 301 kts 167°
2026-04-26 08:40 63.79886 38.92678 21599 ft 294 kts 178°
2026-04-26 08:40 63.77874 38.92746 21138 ft 288 kts 187°
2026-04-26 08:40 63.75897 38.91978 19947 ft 296 kts 199°
2026-04-26 08:41 63.73959 38.90207 18980 ft 298 kts 209°
2026-04-26 08:41 63.72251 38.87712 18196 ft 295 kts 218°
2026-04-26 08:41 63.70740 38.84622 17418 ft 292 kts 224°
2026-04-26 08:41 63.69363 38.81272 16625 ft 289 kts 227°
2026-04-26 08:42 63.68067 38.77848 15874 ft 285 kts 229°
2026-04-26 08:42 63.66808 38.74438 15169 ft 282 kts 229°
2026-04-26 08:42 63.65563 38.71069 14487 ft 278 kts 229°
2026-04-26 08:42 63.64504 38.67385 13397 ft 290 kts 248°
2026-04-26 08:43 63.64178 38.62821 12180 ft 305 kts 274°
2026-04-26 08:43 63.64832 38.58279 11521 ft 314 kts 301°
2026-04-26 08:43 63.66362 38.54705 11254 ft 322 kts 328°
2026-04-26 08:43 63.68460 38.53094 10997 ft 322 kts 356°
2026-04-26 08:44 63.70626 38.53867 10725 ft 320 kts 25°
2026-04-26 08:44 63.72562 38.56446 10463 ft 320 kts 34°
2026-04-26 08:44 63.74410 38.59140 10209 ft 320 kts 34°
2026-04-26 08:44 63.76269 38.61867 9952 ft 318 kts 34°
2026-04-26 08:45 63.78103 38.64551 9781 ft 308 kts 34°
2026-04-26 08:45 63.79870 38.67133 9664 ft 298 kts 34°
2026-04-26 08:45 63.81597 38.69657 9556 ft 295 kts 34°
2026-04-26 08:45 63.83318 38.72169 9417 ft 294 kts 34°
2026-04-26 08:46 63.85038 38.74682 9286 ft 293 kts 34°
2026-04-26 08:46 63.86746 38.77180 9143 ft 293 kts 34°
2026-04-26 08:46 63.88458 38.79683 9000 ft 293 kts 34°
2026-04-26 08:46 63.90168 38.82186 8862 ft 292 kts 34°
2026-04-26 08:47 63.91879 38.84693 8733 ft 292 kts 34°
2026-04-26 08:47 63.93583 38.87193 8597 ft 292 kts 34°
2026-04-26 08:47 63.95260 38.89666 8466 ft 291 kts 34°
2026-04-26 08:47 63.96955 38.92171 8309 ft 290 kts 34°
2026-04-26 08:48 63.98649 38.94676 7981 ft 288 kts 34°
2026-04-26 08:48 64.00320 38.97155 7225 ft 287 kts 33°
2026-04-26 08:48 64.01980 38.99627 6587 ft 281 kts 33°
2026-04-26 08:48 64.03590 39.02026 6275 ft 276 kts 34°
2026-04-26 08:49 64.05223 39.04449 6157 ft 280 kts 34°
2026-04-26 08:49 64.06824 39.06961 6024 ft 279 kts 39°
2026-04-26 08:49 64.08337 39.09693 5896 ft 278 kts 39°
2026-04-26 08:49 64.09853 39.12435 5755 ft 277 kts 39°
2026-04-26 08:50 64.11363 39.15165 5624 ft 276 kts 39°
2026-04-26 08:50 64.12867 39.17885 5493 ft 275 kts 39°
2026-04-26 08:50 64.14363 39.20596 5355 ft 274 kts 39°
2026-04-26 08:50 64.15855 39.23295 5215 ft 273 kts 39°
2026-04-26 08:51 64.18801 39.28634 4961 ft 271 kts 39°
2026-04-26 08:51 64.20276 39.31317 4825 ft 270 kts 40°
2026-04-26 08:51 64.21747 39.33999 4700 ft 269 kts 40°
2026-04-26 08:52 64.23207 39.36666 4566 ft 266 kts 40°
2026-04-26 08:52 64.24635 39.39274 4427 ft 261 kts 40°
2026-04-26 08:52 64.26051 39.41872 4323 ft 256 kts 40°
2026-04-26 08:52 64.27407 39.44358 4367 ft 245 kts 40°
2026-04-26 08:53 64.28732 39.46786 4358 ft 243 kts 40°
2026-04-26 08:53 64.30054 39.49220 4288 ft 243 kts 40°
2026-04-26 08:53 64.31396 39.51690 4181 ft 254 kts 40°
2026-04-26 08:53 64.32766 39.54213 4058 ft 257 kts 41°
2026-04-26 08:54 64.34165 39.56793 3921 ft 256 kts 40°
2026-04-26 08:54 64.35572 39.59391 3784 ft 256 kts 40°
2026-04-26 08:54 64.36937 39.61916 3652 ft 255 kts 40°
2026-04-26 08:54 64.38321 39.64478 3521 ft 254 kts 40°
2026-04-26 08:55 64.39695 39.67028 3391 ft 253 kts 40°
2026-04-26 08:55 64.41062 39.69576 3257 ft 252 kts 40°
2026-04-26 08:55 64.42418 39.72094 3130 ft 249 kts 40°
2026-04-26 08:55 64.43763 39.74472 3234 ft 238 kts 35°
2026-04-26 08:56 64.45155 39.76325 3107 ft 226 kts 31°
2026-04-26 08:56 64.46494 39.78049 2969 ft 215 kts 31°
2026-04-26 08:56 64.47782 39.79715 2967 ft 209 kts 31°
2026-04-26 08:56 64.49023 39.81326 3007 ft 210 kts 30°
2026-04-26 08:57 64.50293 39.82977 3004 ft 209 kts 31°
2026-04-26 08:57 64.51561 39.84631 3009 ft 207 kts 31°
2026-04-26 08:57 64.52757 39.86186 3016 ft 186 kts 31°
2026-04-26 08:57 64.53832 39.87580 3000 ft 169 kts 32°
2026-04-26 08:58 64.54836 39.88892 3011 ft 164 kts 32°
2026-04-26 08:58 64.55821 39.90179 3009 ft 162 kts 31°
2026-04-26 08:58 64.56800 39.91462 3012 ft 161 kts 31°
2026-04-26 08:58 64.57769 39.92735 3041 ft 160 kts 32°
2026-04-26 08:59 64.58724 39.93988 3019 ft 160 kts 32°
2026-04-26 08:59 64.59712 39.95276 3017 ft 160 kts 31°
2026-04-26 08:59 64.60667 39.96526 3020 ft 155 kts 32°
2026-04-26 08:59 64.61514 39.97965 3012 ft 149 kts 45°
2026-04-26 09:00 64.62194 39.99759 3011 ft 146 kts 57°
2026-04-26 09:00 64.62698 40.01797 3012 ft 144 kts 67°
2026-04-26 09:00 64.62944 40.04032 2874 ft 143 kts 89°
2026-04-26 09:00 64.62946 40.06365 2749 ft 144 kts 92°
2026-04-26 09:01 64.62895 40.08701 2615 ft 144 kts 94°
2026-04-26 09:01 64.62816 40.11023 2479 ft 144 kts 95°
2026-04-26 09:01 64.62725 40.13333 2349 ft 142 kts 96°
2026-04-26 09:01 64.62630 40.15587 2216 ft 142 kts 96°
2026-04-26 09:02 64.62530 40.17883 2109 ft 141 kts 96°
2026-04-26 09:02 64.62428 40.20176 2031 ft 142 kts 96°
2026-04-26 09:02 64.62325 40.22468 2027 ft 142 kts 96°
2026-04-26 09:02 64.62223 40.24748 2023 ft 143 kts 96°
2026-04-26 09:03 64.62120 40.27027 2017 ft 141 kts 96°
2026-04-26 09:03 64.62015 40.29314 2011 ft 146 kts 99°
2026-04-26 09:03 64.61907 40.31681 2025 ft 147 kts 99°
2026-04-26 09:03 64.61799 40.34046 2028 ft 147 kts 99°
2026-04-26 09:04 64.61690 40.36422 2026 ft 148 kts 99°
2026-04-26 09:04 64.61581 40.38802 2022 ft 147 kts 99°
2026-04-26 09:04 64.61471 40.41173 2023 ft 148 kts 99°
2026-04-26 09:04 64.61362 40.43521 2029 ft 147 kts 99°
2026-04-26 09:05 64.61251 40.45897 2019 ft 148 kts 99°
2026-04-26 09:05 64.61141 40.48265 1895 ft 147 kts 99°
2026-04-26 09:05 64.61029 40.50636 1721 ft 145 kts 99°
2026-04-26 09:05 64.60920 40.52963 1530 ft 144 kts 99°
2026-04-26 09:06 64.60811 40.55273 1338 ft 143 kts 99°
2026-04-26 09:06 64.60702 40.57564 1125 ft 142 kts 98°
2026-04-26 09:06 64.60594 40.59838 896 ft 142 kts 97°
2026-04-26 09:06 64.60486 40.62106 699 ft 141 kts 97°
2026-04-26 09:07 64.60377 40.64369 497 ft 139 kts 96°
2026-04-26 09:07 64.60270 40.66604 308 ft 140 kts 96°
2026-04-26 09:07 64.60160 40.68857 120 ft 140 kts 96°
2026-04-26 09:07 64.60062 40.70992 38 ft 113 kts 96°
2026-04-26 09:08 64.60000 40.72357 35 ft 61 kts 96°
2026-04-26 09:08 64.59962 40.73264 38 ft 58 kts 96°
2026-04-26 09:08 64.59920 40.74057 35 ft 28 kts 98°
2026-04-26 09:08 64.59858 40.74237 38 ft 7 kts 166°
2026-04-26 09:09 64.59805 40.74212 40 ft 12 kts 183°
2026-04-26 09:09 64.59796 40.74212 40 ft 0 kts 184°
2026-04-26 09:09 64.59787 40.74210 40 ft 4 kts 185°
2026-04-26 09:09 64.59729 40.74194 40 ft 12 kts 193°
2026-04-26 09:10 64.59680 40.74041 40 ft 11 kts 262°
2026-04-26 09:10 64.59692 40.73879 40 ft 12 kts 276°
2026-04-26 09:10 64.59715 40.73637 40 ft 19 kts 283°
2026-04-26 09:10 64.59736 40.73311 40 ft 19 kts 277°
2026-04-26 09:11 64.59751 40.73015 40 ft 20 kts 276°
2026-04-26 09:11 64.59763 40.72694 40 ft 20 kts 275°
2026-04-26 09:11 64.59782 40.72361 40 ft 22 kts 278°
2026-04-26 09:11 64.59799 40.72035 40 ft 18 kts 275°
2026-04-26 09:12 64.59806 40.71773 40 ft 9 kts 253°
2026-04-26 09:12 64.59777 40.71734 40 ft 3 kts 180°
2026-04-26 09:12 64.59758 40.71734 40 ft 3 kts 180°
2026-04-26 09:12 64.59725 40.71722 40 ft 6 kts 208°
2026-04-26 09:13 64.59712 40.71623 40 ft 8 kts 270°
2026-04-26 09:13 64.59706 40.71507 38 ft 6 kts 228°
2026-04-26 09:13 64.59694 40.71493 40 ft 2 kts 204°
2026-04-26 09:13 64.59676 40.71484 40 ft 0 kts 192°
2026-04-26 09:14 64.59675 40.71483 40 ft 1 kts 191°
2026-04-26 09:14 64.59666 40.71482 40 ft 0 kts 186°
2026-04-26 09:15 64.59663 40.71481 40 ft 0 kts 186°
2026-04-26 09:18 59.79943 30.26776 40 ft 2 kts 94°